This is the latest recevied weather packets stored in our database for station/object SQ9RHX-13. If no packets are shown the sender has not sent any weather packets the latest 1 day(s).
| Time | Temp. | Humidity | Pressure | Rain* | Wind** | Luminosity | Snow |
|---|---|---|---|---|---|---|---|
| 1778011204 | 17.78° C | 71% | 1009.4 hPa | 0 mm | 1.34 m/s, 12° | 0 W/m² | - |
| 1778010904 | 17.78° C | 71% | 1009.5 hPa | 0 mm | 0 m/s | 0 W/m² | - |
| 1778010603 | 17.78° C | 71% | 1009.2 hPa | 0 mm | 1.34 m/s, 19° | 0 W/m² | - |
| 1778010306 | 17.78° C | 71% | 1009.6 hPa | 0 mm | 1.34 m/s, 28° | 0 W/m² | - |
| 1778010003 | 17.78° C | 71% | 1009.2 hPa | 0 mm | 1.34 m/s, 40° | 0 W/m² | - |
| 1778009703 | 17.78° C | 71% | 1009.3 hPa | 0 mm | 0.89 m/s, 23° | 0 W/m² | - |
| 1778009403 | 18.33° C | 72% | 1009.4 hPa | 0 mm | 0.45 m/s, 8° | 0 W/m² | - |
| 1778009104 | 18.33° C | 72% | 1009.4 hPa | 0 mm | 0.89 m/s, 19° | 0 W/m² | - |
| 1778008803 | 18.33° C | 72% | 1009.5 hPa | 0 mm | 1.34 m/s, 4° | 0 W/m² | - |
| 1778008502 | 17.78° C | 73% | 1009.7 hPa | 0 mm | 0.45 m/s, 21° | 0 W/m² | - |
| 1778008203 | 17.78° C | 73% | 1009.6 hPa | 0 mm | 0.89 m/s, 32° | 0 W/m² | - |
| 1778007902 | 17.78° C | 73% | 1009.5 hPa | 0 mm | 1.34 m/s, 43° | 0 W/m² | - |
| 1778007603 | 18.33° C | 72% | 1009.4 hPa | 0 mm | 1.34 m/s, 6° | 0 W/m² | - |
| 1778007304 | 18.33° C | 72% | 1009.6 hPa | 0 mm | 2.24 m/s, 9° | 0 W/m² | - |
| 1778007007 | 18.33° C | 71% | 1009.6 hPa | 0 mm | 1.34 m/s, 5° | 0 W/m² | - |
| 1778006702 | 18.89° C | 71% | 1009.9 hPa | 0 mm | 2.24 m/s, 10° | 0 W/m² | - |
| 1778006403 | 18.89° C | 71% | 1010 hPa | 0 mm | 0.45 m/s, 27° | 0 W/m² | - |
| 1778006102 | 18.89° C | 71% | 1009.8 hPa | 0 mm | 0 m/s | 0 W/m² | - |
| 1778005804 | 19.44° C | 70% | 1009.9 hPa | 0 mm | 0.45 m/s, 13° | 0 W/m² | - |
| 1778005502 | 20° C | 67% | 1009.9 hPa | 0 mm | 1.34 m/s, 31° | 0 W/m² | - |
| 1778005203 | 20° C | 64% | 1009.8 hPa | 0 mm | 0.45 m/s, 8° | 0 W/m² | - |
| 1778004903 | 20.56° C | 64% | 1009.6 hPa | 0 mm | 0.89 m/s, 323° | 0 W/m² | - |
| 1778004603 | 20.56° C | 63% | 1009.4 hPa | 0 mm | 0.45 m/s, 5° | 0 W/m² | - |
| 1778004304 | 20.56° C | 63% | 1009.4 hPa | 0 mm | 1.34 m/s, 345° | 1 W/m² | - |
| 1778004003 | 20.56° C | 63% | 1009.3 hPa | 0 mm | 0.89 m/s, 34° | 2 W/m² | - |
* Rain latest hour (hover to see other rain measurements)
** Current wind speed in m/s (hover to see current wind gust speed)